Weather History for KOZA - June, 2014

Change the Weather History Date:

Tuesday, June 10, 2014

  Actual Average Record
Temperature  
Mean Temperature 71 °F -  
Max Temperature 91 °F 89 °F 106 °F (2012)
Min Temperature 51 °F 65 °F 51 °F (2014)
Cooling Degree Days 6    
Growing Degree Days 21 (Base 50)    
Moisture  
Dew Point 49 °F    
Average Humidity 54    
Maximum Humidity 94    
Minimum Humidity 20    
Precipitation  
Precipitation 0.00 in - - ()
Sea Level Pressure  
Sea Level Pressure 30.00 in    
Wind  
Wind Speed 3 mph (NE)    
Max Wind Speed 14 mph    
Max Gust Speed 18 mph    
Visibility 10 miles    
Events      
Averages and records for this station are not official NWS values.
T = Trace of Precipitation, MM = Missing Value Source: NWS Daily Summary

Daily Weather History Graph

Daily Weather History Graph

Search for Another Location

Airport or City:

Trip Planner

Search our weather history database for the weather conditions in past years. The results will help you decide how hot, cold, wet, or windy it might be!

Date:

Astronomy

Jun. 10, 2014 Rise Set
Actual Time 6:41 AM CDT 8:47 PM CDT
Civil Twilight 6:13 AM CDT 9:15 PM CDT
Nautical Twilight 5:40 AM CDT 9:48 PM CDT
Astronomical Twilight 5:04 AM CDT 10:24 PM CDT
Moon 6:23 PM CDT (6/10) 4:37 AM CDT (6/10)
Length of Visible Light 15h 01m
Length of Day
14h 06m
Waxing Gibbous, 92% of the Moon is Illuminated
Jun 10
Waxing Gibbous
Jun 12
Full
Jun 19
Last Quarter
Jun 27
New
Jul 5
First Quarter

Hourly Weather History & Observations

Time (CDT) Temp. Dew Point Humidity Pressure Visibility Wind Dir Wind Speed Gust Speed Precip Events Conditions
12:15 AM 60.8 °F 55.4 °F 82% 30.00 in 10.0 mi Calm Calm - N/A   Clear
12:35 AM 60.8 °F 55.4 °F 82% 30.01 in 10.0 mi Calm Calm - N/A   Clear
12:55 AM 60.8 °F 55.4 °F 82% 30.01 in 10.0 mi Calm Calm - N/A   Clear
1:15 AM 59.0 °F 55.4 °F 88% 30.01 in 10.0 mi Calm Calm - N/A   Clear
1:35 AM 59.0 °F 55.4 °F 88% 30.00 in 10.0 mi NNE 4.6 mph - N/A   Clear
1:55 AM 59.0 °F 55.4 °F 88% 30.00 in 10.0 mi NNE 4.6 mph - N/A   Clear
2:15 AM 57.2 °F 53.6 °F 88% 29.98 in 10.0 mi Calm Calm - N/A   Clear
2:35 AM 55.4 °F 53.6 °F 94% 29.98 in 10.0 mi Calm Calm - N/A   Clear
2:55 AM 55.4 °F 53.6 °F 94% 29.98 in 10.0 mi NNE 3.5 mph - N/A   Clear
3:15 AM 55.4 °F 53.6 °F 94% 29.98 in 10.0 mi NNE 4.6 mph - N/A   Clear
3:35 AM 55.4 °F 51.8 °F 88% 29.98 in 10.0 mi North 3.5 mph - N/A   Clear
3:55 AM 55.4 °F 51.8 °F 88% 29.98 in 10.0 mi NNE 5.8 mph - N/A   Clear
4:15 AM 53.6 °F 51.8 °F 94% 29.99 in 10.0 mi NE 4.6 mph - N/A   Clear
4:35 AM 53.6 °F 51.8 °F 94% 30.00 in 10.0 mi NNE 5.8 mph - N/A   Clear
4:55 AM 53.6 °F 50.0 °F 88% 30.00 in 10.0 mi North 6.9 mph - N/A   Clear
5:15 AM 53.6 °F 50.0 °F 88% 30.01 in 10.0 mi NNE 4.6 mph - N/A   Clear
5:35 AM 53.6 °F 50.0 °F 88% 30.01 in 10.0 mi North 5.8 mph - N/A   Clear
5:55 AM 53.6 °F 50.0 °F 88% 30.02 in 10.0 mi Calm Calm - N/A   Clear
6:15 AM 51.8 °F 50.0 °F 94% 30.03 in 10.0 mi Calm Calm - N/A   Clear
6:35 AM 53.6 °F 50.0 °F 88% 30.04 in 10.0 mi Calm Calm - N/A   Clear
6:55 AM 51.8 °F 50.0 °F 94% 30.04 in 10.0 mi Calm Calm - N/A   Clear
7:15 AM 53.6 °F 50.0 °F 88% 30.04 in 10.0 mi Calm Calm - N/A   Clear
7:35 AM 55.4 °F 50.0 °F 82% 30.05 in 10.0 mi Calm Calm - N/A   Clear
7:55 AM 57.2 °F 50.0 °F 77% 30.05 in 10.0 mi Calm Calm - N/A   Clear
8:10 AM 59.0 °F 51.8 °F 77% 30.06 in 10.0 mi NNE 4.6 mph - N/A   Clear
8:35 AM 62.6 °F 51.8 °F 68% 30.05 in 10.0 mi NNE 12.7 mph - N/A   Clear
8:55 AM 66.2 °F 51.8 °F 60% 30.06 in 10.0 mi NNE 12.7 mph 18.4 mph N/A   Clear
9:15 AM 68.0 °F 50.0 °F 52% 30.07 in 7.0 mi NNE 12.7 mph - N/A   Clear
9:35 AM 69.8 °F 50.0 °F 49% 30.07 in 10.0 mi NNE 13.8 mph - N/A   Clear
9:55 AM 71.6 °F 50.0 °F 46% 30.07 in 10.0 mi NNE 12.7 mph - N/A   Clear
10:15 AM 71.6 °F 50.0 °F 46% 30.07 in 10.0 mi NNE 9.2 mph - N/A   Clear
10:35 AM 73.4 °F 48.2 °F 41% 30.07 in 10.0 mi NNE 9.2 mph - N/A   Clear
10:55 AM 75.2 °F 50.0 °F 41% 30.07 in 10.0 mi NE 6.9 mph - N/A   Clear
11:15 AM 77.0 °F 48.2 °F 36% 30.07 in 10.0 mi NE 8.1 mph - N/A   Clear
11:35 AM 77.0 °F 46.4 °F 34% 30.07 in 10.0 mi NNE 6.9 mph - N/A   Clear
11:55 AM 78.8 °F 46.4 °F 32% 30.06 in 10.0 mi NNE 3.5 mph - N/A   Clear
12:10 PM 78.8 °F 46.4 °F 32% 30.05 in 10.0 mi NE 5.8 mph - N/A   Clear
12:35 PM 82.4 °F 46.4 °F 28% 30.05 in 10.0 mi NNW 5.8 mph - N/A   Clear
12:55 PM 82.4 °F 44.6 °F 26% 30.04 in 7.0 mi Calm Calm - N/A   Clear
1:15 PM 82.4 °F 46.4 °F 28% 30.04 in 10.0 mi NNE 3.5 mph - N/A   Clear
1:35 PM 84.2 °F 44.6 °F 25% 30.03 in 10.0 mi Calm Calm - N/A   Clear
2:15 PM 86.0 °F 44.6 °F 23% 30.02 in 10.0 mi NNE 3.5 mph - N/A   Clear
2:55 PM 87.8 °F 44.6 °F 22% 30.01 in 10.0 mi West 6.9 mph - N/A   Clear
3:35 PM 87.8 °F 44.6 °F 22% 29.98 in 10.0 mi NNW 5.8 mph - N/A   Clear
3:55 PM 89.6 °F 44.6 °F 21% 29.98 in 10.0 mi Calm Calm - N/A   Clear
4:15 PM 89.6 °F 44.6 °F 21% 29.97 in 10.0 mi North 5.8 mph - N/A   Clear
4:55 PM 89.6 °F 44.6 °F 21% 29.95 in 10.0 mi East 4.6 mph - N/A   Clear
5:15 PM 89.6 °F 44.6 °F 21% 29.95 in 10.0 mi ENE 3.5 mph - N/A   Clear
5:35 PM 91.4 °F 44.6 °F 20% 29.94 in 10.0 mi ENE 6.9 mph - N/A   Clear
5:55 PM 89.6 °F 44.6 °F 21% 29.93 in 10.0 mi Calm Calm - N/A   Clear
6:35 PM 89.6 °F 42.8 °F 20% 29.91 in 10.0 mi Calm Calm - N/A   Clear
6:55 PM 91.4 °F 44.6 °F 20% 29.91 in 10.0 mi East 3.5 mph - N/A   Clear
7:15 PM 89.6 °F 42.8 °F 20% 29.91 in 10.0 mi Calm Calm - N/A   Clear
7:35 PM 89.6 °F 44.6 °F 21% 29.91 in 10.0 mi SE 6.9 mph - N/A   Clear
7:55 PM 89.6 °F 42.8 °F 20% 29.91 in 7.0 mi SE 8.1 mph - N/A   Clear
8:15 PM 87.8 °F 44.6 °F 22% 29.91 in 5.0 mi SE 5.8 mph - N/A   Haze
8:35 PM 86.0 °F 44.6 °F 23% 29.91 in 10.0 mi ESE 5.8 mph - N/A   Clear
8:55 PM 82.4 °F 48.2 °F 30% 29.92 in 10.0 mi East 11.5 mph 16.1 mph N/A   Clear
9:15 PM 80.6 °F 50.0 °F 34% 29.92 in 10.0 mi East 9.2 mph - N/A   Clear
9:35 PM 80.6 °F 50.0 °F 34% 29.93 in 10.0 mi ENE 4.6 mph - N/A   Clear
9:55 PM 77.0 °F 51.8 °F 41% 29.94 in 10.0 mi ENE 3.5 mph - N/A   Clear
10:15 PM 77.0 °F 51.8 °F 41% 29.94 in 10.0 mi East 4.6 mph - N/A   Clear
10:35 PM 77.0 °F 51.8 °F 41% 29.94 in 7.0 mi ESE 3.5 mph - N/A   Clear
10:55 PM 75.2 °F 51.8 °F 44% 29.94 in 10.0 mi ESE 5.8 mph - N/A   Clear
11:15 PM 73.4 °F 51.8 °F 47% 29.95 in 10.0 mi Calm Calm - N/A   Clear
11:35 PM 73.4 °F 51.8 °F 47% 29.96 in 10.0 mi East 3.5 mph - N/A   Clear
11:55 PM 71.6 °F 51.8 °F 50% 29.97 in 10.0 mi Calm Calm - N/A   Clear